User: anonymous   Login
Location: site
(53.0000°N, 23.0500°E)
Time: 17:29:11
(UTC+01:00)
Language:

SAOCOM 1-A - Orbit

View from above orbital plane
View from above orbital plane
View from above satellite
View from above satellite

Ground track
Ground track

The orbit data is extracted from the following two-line orbital elements,

1 43641U 18076A   20056.06827050 -.00000503  00000-0 -56674-4 0  9993
2 43641  97.8866 243.7978 0001376  81.3456 278.7893 14.82152629 74801
Epoch (UTC): 25 February 2020 01:38:18
Eccentricity: 0.0001376
inclination: 97.8866°
perigee height: 621 km
apogee height: 623 km
right ascension of ascending node: 243.7978°
argument of perigee: 81.3456°
revolutions per day: 14.82152629
mean anomaly at epoch: 278.7893°
orbit number at epoch: 7480

The dashed part of the orbit path shows where the satellite is in the earth's shadow,  

DLR